CES7866 ZYHB-ZJSY

Flight info

Callsign CES7866
Flight time N/A
Altitude 36100
Route LEGAG W204 RUSBO G212 VYK W37 IPNIT W4 WXI V54 DOSKU W56 UPMAT W82 GOSMA R343 ENKUS W120 IVPUB W159 BHY W70 NYB G221 UPRIS
Aircraft B738/L-SDE3FGHIRWY/LB1

Departure

Time 2026-05-05 06:54
Airport Harbin Taiping International Airport (ZYHB)

Arrival

Time N/A
Airport Sanya Phoenix International Airport (ZJSY)
Time Latitude Longitude Altitude Speed Heading
2026-05-05 06:35 45.61530 126.23325 509 ft 0 kts 359°
2026-05-05 06:40 45.61527 126.23325 509 ft 2 kts
2026-05-05 06:40 45.61512 126.23325 509 ft 2 kts 359°
2026-05-05 06:40 45.61497 126.23325 509 ft 2 kts 359°
2026-05-05 06:40 45.61486 126.23325 509 ft 0 kts 359°
2026-05-05 06:41 45.61472 126.23328 509 ft 2 kts 335°
2026-05-05 06:41 45.61460 126.23340 509 ft 2 kts 311°
2026-05-05 06:41 45.61453 126.23358 509 ft 2 kts 286°
2026-05-05 06:41 45.61451 126.23380 509 ft 2 kts 261°
2026-05-05 06:42 45.61456 126.23400 509 ft 2 kts 236°
2026-05-05 06:42 45.61462 126.23411 509 ft 0 kts 220°
2026-05-05 06:42 45.61467 126.23417 509 ft 0 kts 218°
2026-05-05 06:44 45.61461 126.23410 509 ft 2 kts 218°
2026-05-05 06:44 45.61446 126.23392 509 ft 3 kts 219°
2026-05-05 06:45 45.61427 126.23370 509 ft 3 kts 221°
2026-05-05 06:45 45.61407 126.23344 509 ft 4 kts 219°
2026-05-05 06:45 45.61377 126.23309 509 ft 6 kts 219°
2026-05-05 06:45 45.61340 126.23266 509 ft 7 kts 219°
2026-05-05 06:46 45.61296 126.23213 509 ft 9 kts 219°
2026-05-05 06:46 45.61242 126.23153 509 ft 10 kts 217°
2026-05-05 06:46 45.61182 126.23088 509 ft 11 kts 219°
2026-05-05 06:46 45.61118 126.23013 509 ft 12 kts 219°
2026-05-05 06:47 45.61047 126.22929 509 ft 13 kts 219°
2026-05-05 06:47 45.60975 126.22845 509 ft 12 kts 219°
2026-05-05 06:47 45.60918 126.22778 509 ft 9 kts 219°
2026-05-05 06:47 45.60857 126.22756 509 ft 9 kts 154°
2026-05-05 06:48 45.60810 126.22824 509 ft 9 kts 129°
2026-05-05 06:48 45.60767 126.22898 509 ft 9 kts 129°
2026-05-05 06:48 45.60727 126.22968 509 ft 9 kts 129°
2026-05-05 06:48 45.60687 126.23038 509 ft 8 kts 129°
2026-05-05 06:49 45.60646 126.23110 509 ft 10 kts 129°
2026-05-05 06:49 45.60596 126.23197 509 ft 12 kts 129°
2026-05-05 06:49 45.60537 126.23299 509 ft 14 kts 129°
2026-05-05 06:49 45.60475 126.23406 509 ft 12 kts 129°
2026-05-05 06:50 45.60427 126.23492 509 ft 9 kts 129°
2026-05-05 06:50 45.60388 126.23551 509 ft 6 kts 133°
2026-05-05 06:50 45.60356 126.23603 509 ft 7 kts 129°
2026-05-05 06:50 45.60323 126.23660 509 ft 7 kts 129°
2026-05-05 06:51 45.60297 126.23706 509 ft 0 kts 129°
2026-05-05 06:51 45.60292 126.23714 509 ft 2 kts 129°
2026-05-05 06:52 45.60275 126.23743 509 ft 4 kts 129°
2026-05-05 06:52 45.60250 126.23779 509 ft 5 kts 150°
2026-05-05 06:52 45.60209 126.23773 509 ft 7 kts 206°
2026-05-05 06:52 45.60165 126.23733 509 ft 7 kts 217°
2026-05-05 06:53 45.60121 126.23680 509 ft 9 kts 219°
2026-05-05 06:53 45.60010 126.23550 509 ft 53 kts 219°
2026-05-05 06:53 45.59484 126.22929 509 ft 139 kts 219°
2026-05-05 06:53 45.58619 126.21845 787 ft 182 kts 226°
2026-05-05 06:54 45.57781 126.20678 1956 ft 173 kts 230°
2026-05-05 06:54 45.56821 126.19504 2632 ft 189 kts 215°
2026-05-05 06:54 45.55727 126.18439 3350 ft 200 kts 220°
2026-05-05 06:54 45.54602 126.17136 3967 ft 217 kts 222°
2026-05-05 06:55 45.53415 126.15731 4598 ft 235 kts 222°
2026-05-05 06:55 45.52135 126.14211 5346 ft 248 kts 222°
2026-05-05 06:55 45.50824 126.12510 6077 ft 263 kts 227°
2026-05-05 06:55 45.49540 126.10686 7032 ft 267 kts 226°
2026-05-05 06:56 45.48214 126.08871 8045 ft 268 kts 226°
2026-05-05 06:56 45.46865 126.07046 9057 ft 269 kts 226°
2026-05-05 06:56 45.45536 126.05239 10072 ft 268 kts 227°
2026-05-05 06:56 45.44305 126.03245 10774 ft 277 kts 236°
2026-05-05 06:57 45.43130 126.00936 11159 ft 298 kts 236°
2026-05-05 06:57 45.41859 125.98483 11570 ft 317 kts 236°
2026-05-05 06:57 45.40515 125.95915 11923 ft 335 kts 236°
2026-05-05 06:57 45.39107 125.93214 12092 ft 357 kts 236°
2026-05-05 06:58 45.37619 125.90372 12856 ft 359 kts 236°
2026-05-05 06:58 45.36118 125.87524 13570 ft 363 kts 236°
2026-05-05 06:58 45.34600 125.84641 14275 ft 367 kts 237°
2026-05-05 06:58 45.33075 125.81736 14983 ft 370 kts 237°
2026-05-05 06:59 45.31540 125.78814 15618 ft 374 kts 238°
2026-05-05 06:59 45.29990 125.75854 16247 ft 377 kts 238°
2026-05-05 06:59 45.28427 125.72874 16848 ft 380 kts 238°
2026-05-05 06:59 45.26837 125.69846 17384 ft 385 kts 238°
2026-05-05 07:00 45.25248 125.66826 17966 ft 388 kts 239°
2026-05-05 07:00 45.23618 125.63736 18502 ft 391 kts 238°
2026-05-05 07:00 45.22004 125.60661 19062 ft 394 kts 238°
2026-05-05 07:00 45.20370 125.57539 19575 ft 397 kts 239°
2026-05-05 07:01 45.18713 125.54401 20072 ft 401 kts 238°
2026-05-05 07:01 45.17034 125.51231 20608 ft 403 kts 238°
2026-05-05 07:01 45.15340 125.48015 21101 ft 406 kts 238°
2026-05-05 07:01 45.13652 125.44826 21535 ft 409 kts 238°
2026-05-05 07:02 45.11936 125.41597 21990 ft 412 kts 238°
2026-05-05 07:02 45.10216 125.38355 22325 ft 416 kts 238°
2026-05-05 07:02 45.08482 125.35096 22803 ft 418 kts 238°
2026-05-05 07:02 45.06744 125.31837 23136 ft 422 kts 237°
2026-05-05 07:03 45.04970 125.28512 23571 ft 425 kts 237°
2026-05-05 07:03 45.03187 125.25176 23978 ft 427 kts 238°
2026-05-05 07:03 45.01448 125.21769 24306 ft 430 kts 239°
2026-05-05 07:03 44.99742 125.18291 24700 ft 433 kts 239°
2026-05-05 07:04 44.98042 125.14828 25098 ft 435 kts 239°
2026-05-05 07:04 44.96336 125.11378 25554 ft 435 kts 239°
2026-05-05 07:04 44.94608 125.07897 26045 ft 435 kts 239°
2026-05-05 07:04 44.92858 125.04378 26663 ft 431 kts 239°
2026-05-05 07:05 44.91184 125.01024 27651 ft 420 kts 239°
2026-05-05 07:05 44.89490 124.97632 27824 ft 426 kts 239°
2026-05-05 07:05 44.87788 124.94218 28226 ft 427 kts 239°
2026-05-05 07:05 44.86071 124.90784 28552 ft 429 kts 239°
2026-05-05 07:06 44.84369 124.87389 28923 ft 430 kts 239°
2026-05-05 07:06 44.82647 124.83968 29351 ft 429 kts 239°
2026-05-05 07:06 44.80904 124.80512 29725 ft 430 kts 239°
2026-05-05 07:06 44.79191 124.77121 30167 ft 429 kts 239°
2026-05-05 07:07 44.77467 124.73705 30556 ft 429 kts 239°
2026-05-05 07:07 44.75750 124.70304 30965 ft 428 kts 239°
2026-05-05 07:07 44.74019 124.66887 31381 ft 426 kts 239°
2026-05-05 07:07 44.72322 124.63541 31766 ft 425 kts 239°
2026-05-05 07:08 44.70601 124.60149 32044 ft 426 kts 239°
2026-05-05 07:08 44.68878 124.56763 32474 ft 424 kts 239°
2026-05-05 07:08 44.67180 124.53431 32824 ft 423 kts 239°
2026-05-05 07:08 44.65476 124.50087 33216 ft 422 kts 239°
2026-05-05 07:09 44.63774 124.46744 33456 ft 423 kts 240°
2026-05-05 07:09 44.62077 124.43410 33914 ft 420 kts 240°
2026-05-05 07:09 44.60415 124.40074 34236 ft 418 kts 243°
2026-05-05 07:09 44.59045 124.36496 34461 ft 414 kts 250°
2026-05-05 07:10 44.58038 124.32783 34819 ft 409 kts 255°
2026-05-05 07:10 44.57377 124.28936 35090 ft 407 kts 263°
2026-05-05 07:10 44.57086 124.25529 35342 ft 405 kts 266°
2026-05-05 07:10 44.56817 124.21613 35643 ft 404 kts 265°
2026-05-05 07:11 44.56519 124.17713 35725 ft 406 kts 265°
2026-05-05 07:11 44.54923 124.10202 35715 ft 407 kts 246°
2026-05-05 07:12 44.51711 124.03625 35716 ft 413 kts 238°
2026-05-05 07:12 44.48298 123.97106 35717 ft 415 kts 239°
2026-05-05 07:13 44.44931 123.90631 35706 ft 415 kts 239°
2026-05-05 07:13 44.41597 123.84141 35704 ft 411 kts 239°
2026-05-05 07:14 44.38279 123.77679 35703 ft 412 kts 239°
2026-05-05 07:14 44.34898 123.71134 35705 ft 416 kts 239°
2026-05-05 07:15 44.31530 123.64629 35690 ft 415 kts 239°
2026-05-05 07:15 44.28157 123.58115 35694 ft 414 kts 239°
2026-05-05 07:16 44.24789 123.51645 35700 ft 414 kts 239°
2026-05-05 07:16 44.21402 123.45149 35697 ft 415 kts 239°
2026-05-05 07:17 44.18029 123.38686 35694 ft 416 kts 239°
2026-05-05 07:17 44.14613 123.32156 35692 ft 416 kts 238°
2026-05-05 07:18 44.11200 123.25669 35699 ft 416 kts 239°
2026-05-05 07:18 44.07814 123.19227 35707 ft 417 kts 239°
2026-05-05 07:19 44.04389 123.12725 35716 ft 418 kts 238°
2026-05-05 07:19 44.00959 123.06226 35713 ft 417 kts 238°
2026-05-05 07:20 43.97511 122.99715 35714 ft 419 kts 239°
2026-05-05 07:20 43.94064 122.93218 35709 ft 420 kts 238°
2026-05-05 07:21 43.90691 122.86681 35710 ft 417 kts 239°
2026-05-05 07:21 43.87346 122.80144 35701 ft 416 kts 239°
2026-05-05 07:22 43.84003 122.73634 35706 ft 419 kts 240°
2026-05-05 07:22 43.80647 122.67125 35702 ft 419 kts 239°
2026-05-05 07:23 43.77445 122.60917 35705 ft 418 kts 240°
2026-05-05 07:23 43.74356 122.54938 35698 ft 417 kts 239°
2026-05-05 07:24 43.70999 122.48457 35700 ft 418 kts 239°
2026-05-05 07:24 43.67595 122.41914 35705 ft 418 kts 240°
2026-05-05 07:25 43.64208 122.35417 35691 ft 419 kts 239°
2026-05-05 07:25 43.60805 122.28886 35694 ft 421 kts 239°
2026-05-05 07:26 43.57925 122.23368 35323 ft 421 kts 234°
2026-05-05 07:26 43.56598 122.20815 35639 ft 416 kts 236°
2026-05-05 07:26 43.55029 122.17486 36086 ft 413 kts 237°
2026-05-05 07:27 43.51715 122.10872 36103 ft 428 kts 233°
2026-05-05 07:27 43.48110 122.04196 36104 ft 442 kts 234°
2026-05-05 07:28 43.44448 121.97257 36102 ft 456 kts 234°
2026-05-05 07:28 43.40704 121.90116 36101 ft 466 kts 234°
2026-05-05 07:29 43.36928 121.82906 36100 ft 462 kts 234°
2026-05-05 07:29 43.33199 121.75790 36101 ft 460 kts 234°
2026-05-05 07:30 43.29460 121.68669 36101 ft 462 kts 234°
2026-05-05 07:30 43.23854 121.58017 36101 ft 462 kts 234°
2026-05-05 07:31 43.20101 121.50903 36101 ft 462 kts 234°
2026-05-05 07:31 43.16330 121.43767 36100 ft 462 kts 234°
2026-05-05 07:32 43.12596 121.36719 36101 ft 462 kts 234°
2026-05-05 07:32 43.08822 121.29614 36101 ft 462 kts 234°
2026-05-05 07:33 43.05063 121.22553 36101 ft 462 kts 234°
2026-05-05 07:33 43.01269 121.15442 36100 ft 462 kts 234°
2026-05-05 07:34 42.97488 121.08373 36101 ft 462 kts 234°
2026-05-05 07:34 42.93724 121.01354 36100 ft 462 kts 234°
2026-05-05 07:35 42.89936 120.94304 36101 ft 462 kts 234°
2026-05-05 07:35 42.86151 120.87277 36101 ft 462 kts 234°
2026-05-05 07:36 42.82372 120.80276 36101 ft 462 kts 234°
2026-05-05 07:36 42.78560 120.73233 36101 ft 462 kts 234°
2026-05-05 07:37 42.74773 120.66252 36101 ft 462 kts 234°
2026-05-05 07:37 42.70942 120.59208 36101 ft 462 kts 234°
2026-05-05 07:38 42.67153 120.52257 36101 ft 462 kts 234°
2026-05-05 07:38 42.63318 120.45237 36100 ft 462 kts 234°
2026-05-05 07:39 42.59506 120.38275 36101 ft 462 kts 234°
2026-05-05 07:39 42.55679 120.31304 36101 ft 462 kts 233°
2026-05-05 07:40 42.51856 120.24354 36100 ft 462 kts 233°
2026-05-05 07:40 42.48016 120.17391 36101 ft 462 kts 233°
2026-05-05 07:41 42.44200 120.10487 36101 ft 462 kts 233°
2026-05-05 07:41 42.40345 120.03529 36100 ft 462 kts 233°
2026-05-05 07:42 42.36624 119.96829 36101 ft 462 kts 233°
2026-05-05 07:42 42.32770 119.89905 36100 ft 462 kts 233°
2026-05-05 07:43 42.28925 119.83014 36100 ft 462 kts 233°
2026-05-05 07:43 42.25059 119.76099 36100 ft 462 kts 233°
2026-05-05 07:44 42.21210 119.69232 36100 ft 462 kts 233°
2026-05-05 07:44 42.17339 119.62341 36100 ft 462 kts 233°
2026-05-05 07:45 42.13463 119.55458 36100 ft 462 kts 233°
2026-05-05 07:45 42.09602 119.48616 36100 ft 462 kts 233°
2026-05-05 07:46 42.05706 119.41726 36100 ft 462 kts 233°
2026-05-05 07:46 42.01832 119.34893 36101 ft 462 kts 232°
2026-05-05 07:47 41.97944 119.28050 36100 ft 462 kts 232°
2026-05-05 07:47 41.94045 119.21202 36100 ft 462 kts 232°
2026-05-05 07:48 41.90151 119.14379 36100 ft 462 kts 232°
2026-05-05 07:48 41.86239 119.07542 36100 ft 462 kts 232°
2026-05-05 07:49 41.82326 119.00717 36100 ft 462 kts 232°
2026-05-05 07:49 41.78434 118.93945 36100 ft 462 kts 232°
2026-05-05 07:50 41.74517 118.87142 36100 ft 462 kts 232°
2026-05-05 07:50 41.70611 118.80376 36100 ft 462 kts 232°
2026-05-05 07:51 41.66693 118.73601 36100 ft 462 kts 232°
2026-05-05 07:51 41.64790 118.70318 36100 ft 462 kts 232°
2026-05-05 07:52 41.63599 118.68276 36205 ft 459 kts 236°
2026-05-05 07:52 41.61583 118.65044 35836 ft 451 kts 234°
2026-05-05 07:52 41.59593 118.61908 35779 ft 431 kts 236°
2026-05-05 07:52 41.57827 118.58837 35779 ft 413 kts 239°
2026-05-05 07:53 41.54588 118.52692 35775 ft 415 kts 239°
2026-05-05 07:53 41.51008 118.46604 35817 ft 426 kts 238°
2026-05-05 07:54 41.47918 118.40602 35875 ft 430 kts 246°
2026-05-05 07:54 41.44820 118.33701 35865 ft 440 kts 244°
2026-05-05 07:55 41.41662 118.26843 35861 ft 438 kts 244°
2026-05-05 07:55 41.38516 118.20016 35848 ft 434 kts 244°
2026-05-05 07:56 41.35360 118.13178 35835 ft 438 kts 244°
2026-05-05 07:56 41.32171 118.06284 35822 ft 439 kts 245°
2026-05-05 07:57 41.28997 117.99433 35809 ft 437 kts 244°
2026-05-05 07:57 41.25806 117.92565 35815 ft 437 kts 245°
2026-05-05 07:58 41.22626 117.85745 35827 ft 439 kts 244°
2026-05-05 07:58 41.19401 117.78835 35824 ft 440 kts 245°
2026-05-05 07:59 41.16208 117.72001 35828 ft 437 kts 245°
2026-05-05 07:59 41.13028 117.65218 35827 ft 437 kts 245°
2026-05-05 08:00 41.09827 117.58386 35819 ft 439 kts 245°
2026-05-05 08:00 41.06601 117.51578 35809 ft 437 kts 243°
2026-05-05 08:01 41.02570 117.45456 35799 ft 457 kts 225°
2026-05-05 08:01 40.96907 117.41309 35800 ft 474 kts 209°
2026-05-05 08:02 40.90780 117.38193 35813 ft 474 kts 208°
2026-05-05 08:02 40.84683 117.35034 35815 ft 475 kts 208°
2026-05-05 08:03 40.78544 117.31879 35808 ft 477 kts 207°
2026-05-05 08:03 40.72366 117.28730 35791 ft 477 kts 208°
2026-05-05 08:04 40.66144 117.25706 35792 ft 478 kts 206°
2026-05-05 08:04 40.59885 117.22762 35798 ft 477 kts 206°
2026-05-05 08:05 40.53615 117.19801 35801 ft 479 kts 206°
2026-05-05 08:05 40.47365 117.16853 35799 ft 482 kts 206°
2026-05-05 08:06 40.41034 117.13879 35776 ft 480 kts 206°
2026-05-05 08:06 40.34791 117.10955 35765 ft 481 kts 206°
2026-05-05 08:07 40.28527 117.08022 35739 ft 480 kts 206°
2026-05-05 08:07 40.22270 117.05097 35725 ft 481 kts 206°
2026-05-05 08:08 40.15964 117.02157 35729 ft 483 kts 206°
2026-05-05 08:08 40.09685 116.99227 35720 ft 482 kts 206°
2026-05-05 08:09 40.03345 116.96281 35724 ft 480 kts 206°
2026-05-05 08:09 39.97067 116.93377 35732 ft 481 kts 206°
2026-05-05 08:10 39.90763 116.90460 35738 ft 482 kts 206°
2026-05-05 08:10 39.84455 116.87546 35727 ft 481 kts 206°
2026-05-05 08:11 39.78148 116.84628 35730 ft 483 kts 206°
2026-05-05 08:11 39.71847 116.81653 35727 ft 483 kts 206°
2026-05-05 08:12 39.65508 116.78661 35729 ft 484 kts 206°
2026-05-05 08:12 39.59187 116.75696 35732 ft 484 kts 206°
2026-05-05 08:13 39.52841 116.72720 35736 ft 484 kts 206°
2026-05-05 08:13 39.46540 116.69776 35738 ft 484 kts 206°
2026-05-05 08:14 39.40222 116.66824 35741 ft 482 kts 206°
2026-05-05 08:14 39.33869 116.63860 35744 ft 485 kts 206°
2026-05-05 08:15 39.27526 116.60908 35741 ft 487 kts 206°
2026-05-05 08:15 39.21247 116.57733 35739 ft 481 kts 212°
2026-05-05 08:16 39.15595 116.53463 35751 ft 470 kts 221°
2026-05-05 08:16 39.10193 116.48676 35747 ft 475 kts 221°
2026-05-05 08:17 39.04731 116.43874 35750 ft 473 kts 221°
2026-05-05 08:17 38.99324 116.39084 35747 ft 471 kts 221°
2026-05-05 08:18 38.93921 116.34281 35740 ft 473 kts 221°
2026-05-05 08:18 38.88511 116.29485 35730 ft 476 kts 221°
2026-05-05 08:19 38.83087 116.24672 35745 ft 474 kts 221°
2026-05-05 08:19 38.77684 116.19890 35737 ft 474 kts 221°
2026-05-05 08:20 38.72229 116.15065 35748 ft 475 kts 221°
2026-05-05 08:20 38.66733 116.10417 35742 ft 478 kts 217°
2026-05-05 08:21 38.60598 116.06917 35750 ft 487 kts 206°
2026-05-05 08:21 38.54261 116.03858 35753 ft 488 kts 207°
2026-05-05 08:22 38.47898 116.00758 35743 ft 490 kts 207°
2026-05-05 08:22 38.41527 115.97697 35746 ft 490 kts 206°
2026-05-05 08:23 38.35144 115.94652 35751 ft 489 kts 206°
2026-05-05 08:23 38.28702 115.91858 35755 ft 493 kts 200°
2026-05-05 08:24 38.21864 115.90464 35765 ft 501 kts 192°
2026-05-05 08:24 38.14939 115.89329 35767 ft 501 kts 192°
2026-05-05 08:25 38.08080 115.88201 35771 ft 501 kts 192°
2026-05-05 08:25 38.01115 115.87090 35769 ft 501 kts 192°
2026-05-05 08:26 37.94269 115.86018 35779 ft 500 kts 192°
2026-05-05 08:26 37.87350 115.84924 35785 ft 501 kts 192°
2026-05-05 08:27 37.80414 115.83781 35781 ft 504 kts 192°
2026-05-05 08:27 37.73578 115.82209 35787 ft 498 kts 200°
2026-05-05 08:28 37.67039 115.79347 35781 ft 492 kts 210°
2026-05-05 08:28 37.60840 115.75920 35777 ft 490 kts 210°
2026-05-05 08:29 37.54627 115.72487 35772 ft 488 kts 210°
2026-05-05 08:30 37.45311 115.67232 35777 ft 492 kts 210°
2026-05-05 08:30 37.39083 115.63662 35785 ft 490 kts 212°
2026-05-05 08:31 37.32920 115.59972 35792 ft 492 kts 211°
2026-05-05 08:31 37.26737 115.56290 35787 ft 490 kts 212°
2026-05-05 08:32 37.20604 115.52646 35784 ft 489 kts 212°
2026-05-05 08:32 37.14447 115.48989 35790 ft 492 kts 211°
2026-05-05 08:33 37.08256 115.45325 35795 ft 494 kts 211°
2026-05-05 08:33 37.02047 115.41650 35792 ft 494 kts 211°
2026-05-05 08:34 36.95811 115.37974 35800 ft 493 kts 211°
2026-05-05 08:34 36.89660 115.34351 35798 ft 492 kts 211°
2026-05-05 08:35 36.83443 115.30701 35800 ft 495 kts 211°
2026-05-05 08:35 36.77238 115.27069 35799 ft 493 kts 211°
2026-05-05 08:36 36.71029 115.23427 35803 ft 494 kts 211°
2026-05-05 08:36 36.64819 115.19791 35802 ft 495 kts 211°
2026-05-05 08:37 36.58620 115.16032 35798 ft 491 kts 215°
2026-05-05 08:37 36.53097 115.11286 35800 ft 480 kts 228°
2026-05-05 08:38 36.48227 115.05584 35802 ft 481 kts 230°
2026-05-05 08:38 36.43390 114.99941 35802 ft 480 kts 230°
2026-05-05 08:39 36.38468 114.94324 35797 ft 479 kts 226°
2026-05-05 08:39 36.32977 114.89565 35800 ft 490 kts 216°
2026-05-05 08:40 36.27040 114.85358 35797 ft 494 kts 216°
2026-05-05 08:40 36.21101 114.81119 35800 ft 493 kts 216°
2026-05-05 08:41 36.15160 114.76932 35807 ft 490 kts 216°
2026-05-05 08:41 36.09005 114.73108 35810 ft 501 kts 206°
2026-05-05 08:41 36.05639 114.72050 35807 ft 511 kts 192°
2026-05-05 08:42 36.02100 114.71635 35821 ft 514 kts 188°
2026-05-05 08:42 35.94978 114.70950 35819 ft 512 kts 189°
2026-05-05 08:43 35.87868 114.70188 35822 ft 514 kts 189°
2026-05-05 08:43 35.80761 114.69469 35821 ft 515 kts 188°
2026-05-05 08:44 35.73611 114.68766 35817 ft 514 kts 188°
2026-05-05 08:44 35.66483 114.68067 35817 ft 514 kts 188°
2026-05-05 08:45 35.59435 114.67379 35820 ft 516 kts 188°
2026-05-05 08:45 35.52252 114.66676 35819 ft 516 kts 188°
2026-05-05 08:46 35.45080 114.65982 35816 ft 514 kts 188°
2026-05-05 08:46 35.37917 114.65277 35819 ft 517 kts 188°
2026-05-05 08:47 35.30795 114.64590 35824 ft 518 kts 188°
2026-05-05 08:47 35.23579 114.63901 35824 ft 515 kts 188°
2026-05-05 08:48 35.16448 114.63212 35825 ft 515 kts 188°
2026-05-05 08:48 35.09293 114.62521 35826 ft 517 kts 188°
2026-05-05 08:49 35.02125 114.61841 35826 ft 516 kts 188°
2026-05-05 08:49 34.95017 114.61152 35849 ft 517 kts 188°
2026-05-05 08:50 34.87851 114.60470 35849 ft 517 kts 188°
2026-05-05 08:50 34.80690 114.59785 35854 ft 516 kts 187°
2026-05-05 08:51 34.73582 114.59106 35856 ft 517 kts 188°
2026-05-05 08:51 34.66476 114.58434 35852 ft 518 kts 187°
2026-05-05 08:52 34.59271 114.57752 35853 ft 518 kts 187°
2026-05-05 08:52 34.52101 114.57068 35850 ft 517 kts 187°
2026-05-05 08:53 34.44950 114.56396 35850 ft 515 kts 187°
2026-05-05 08:53 34.37791 114.55710 35851 ft 517 kts 187°
2026-05-05 08:54 34.30633 114.55028 35846 ft 519 kts 187°
2026-05-05 08:54 34.23411 114.54336 35847 ft 519 kts 187°
2026-05-05 08:55 34.16239 114.53661 35854 ft 518 kts 187°
2026-05-05 08:55 34.10576 114.53119 35855 ft 517 kts 187°
2026-05-05 08:56 34.03373 114.52442 35855 ft 516 kts 187°
2026-05-05 08:56 33.96259 114.51776 35857 ft 517 kts 187°
2026-05-05 08:57 33.89059 114.51090 35851 ft 519 kts 187°
2026-05-05 08:57 33.81862 114.50410 35850 ft 516 kts 187°
2026-05-05 08:58 33.74720 114.49746 35851 ft 515 kts 187°
2026-05-05 08:58 33.67558 114.49074 35848 ft 516 kts 187°
2026-05-05 08:59 33.60376 114.48403 35854 ft 517 kts 187°
2026-05-05 08:59 33.53187 114.47729 35854 ft 518 kts 187°
2026-05-05 09:00 33.46021 114.47051 35866 ft 518 kts 187°
2026-05-05 09:00 33.38876 114.46375 35855 ft 515 kts 187°
2026-05-05 09:01 33.31728 114.45705 35859 ft 516 kts 187°
2026-05-05 09:01 33.24552 114.45029 35870 ft 516 kts 187°
2026-05-05 09:02 33.17374 114.44354 35859 ft 516 kts 187°
2026-05-05 09:02 33.10228 114.43679 35862 ft 516 kts 187°
2026-05-05 09:03 33.03024 114.43012 35877 ft 518 kts 187°
2026-05-05 09:03 32.95895 114.42347 35881 ft 513 kts 187°
2026-05-05 09:04 32.88769 114.41677 35874 ft 514 kts 187°
2026-05-05 09:04 32.82511 114.41093 35889 ft 515 kts 187°
2026-05-05 09:05 32.75367 114.40424 35891 ft 513 kts 187°
2026-05-05 09:05 32.68283 114.39768 35891 ft 513 kts 187°
2026-05-05 09:06 32.61127 114.39111 35886 ft 514 kts 187°
2026-05-05 09:06 32.54037 114.38461 35877 ft 513 kts 187°
2026-05-05 09:07 32.46888 114.37802 35904 ft 514 kts 187°
2026-05-05 09:07 32.39779 114.37154 35899 ft 517 kts 187°
2026-05-05 09:08 32.32589 114.36500 35884 ft 515 kts 187°
2026-05-05 09:08 32.25486 114.35846 35888 ft 515 kts 187°
2026-05-05 09:09 32.18281 114.35571 35897 ft 516 kts 183°
2026-05-05 09:09 32.11129 114.35394 35888 ft 516 kts 184°
2026-05-05 09:10 32.03928 114.35194 35904 ft 516 kts 184°
2026-05-05 09:10 31.96776 114.34988 35931 ft 514 kts 184°
2026-05-05 09:11 31.89581 114.34772 35909 ft 514 kts 184°
2026-05-05 09:11 31.82506 114.34558 35926 ft 513 kts 184°
2026-05-05 09:12 31.75319 114.34339 35905 ft 514 kts 184°
2026-05-05 09:12 31.71781 114.34233 36084 ft 516 kts 184°
2026-05-05 09:12 31.68183 114.34128 35972 ft 516 kts 184°
2026-05-05 09:13 31.61027 114.33920 35920 ft 509 kts 184°
2026-05-05 09:13 31.53947 114.33707 35921 ft 513 kts 184°
2026-05-05 09:14 31.46815 114.33496 35916 ft 515 kts 184°
2026-05-05 09:14 31.39682 114.33044 35911 ft 508 kts 190°
2026-05-05 09:15 31.32907 114.31273 35927 ft 500 kts 205°
2026-05-05 09:15 31.26566 114.27971 35936 ft 498 kts 209°
2026-05-05 09:16 31.20262 114.24610 35931 ft 498 kts 209°
2026-05-05 09:16 31.13951 114.21238 35936 ft 497 kts 210°
2026-05-05 09:17 31.07693 114.17863 35923 ft 499 kts 210°
2026-05-05 09:17 31.01404 114.14459 35936 ft 499 kts 210°
2026-05-05 09:18 30.95114 114.11048 35929 ft 496 kts 210°
2026-05-05 09:18 30.88870 114.07663 35939 ft 496 kts 210°
2026-05-05 09:19 30.82597 114.04259 35917 ft 501 kts 210°
2026-05-05 09:19 30.76279 114.00846 35915 ft 498 kts 211°
2026-05-05 09:20 30.70087 113.97369 35925 ft 495 kts 211°
2026-05-05 09:20 30.63700 113.94184 35914 ft 501 kts 207°
2026-05-05 09:21 30.57297 113.91042 35905 ft 498 kts 209°
2026-05-05 09:21 30.50976 113.87853 35920 ft 496 kts 209°
2026-05-05 09:22 30.44625 113.84661 35905 ft 496 kts 209°
2026-05-05 09:22 30.38312 113.81492 35905 ft 495 kts 209°
2026-05-05 09:23 30.31985 113.78313 35920 ft 496 kts 209°
2026-05-05 09:23 30.25644 113.75135 35896 ft 497 kts 209°
2026-05-05 09:24 30.19308 113.71966 35923 ft 494 kts 209°
2026-05-05 09:24 30.12983 113.68808 35906 ft 495 kts 210°
2026-05-05 09:25 30.06678 113.65659 35918 ft 495 kts 210°
2026-05-05 09:25 30.00372 113.62516 35912 ft 493 kts 210°
2026-05-05 09:26 29.94097 113.59386 35924 ft 492 kts 210°
2026-05-05 09:26 29.88067 113.55830 35922 ft 488 kts 215°
2026-05-05 09:27 29.82033 113.52142 35928 ft 490 kts 214°
2026-05-05 09:27 29.76013 113.48506 35927 ft 490 kts 214°
2026-05-05 09:28 29.70002 113.44889 35924 ft 485 kts 214°
2026-05-05 09:28 29.64022 113.41302 35932 ft 486 kts 214°
2026-05-05 09:29 29.58022 113.37708 35934 ft 487 kts 214°
2026-05-05 09:29 29.52078 113.34158 35941 ft 485 kts 214°
2026-05-05 09:30 29.46081 113.30574 35944 ft 487 kts 214°
2026-05-05 09:30 29.40052 113.26984 35941 ft 488 kts 214°
2026-05-05 09:31 29.34210 113.23132 35940 ft 479 kts 222°
2026-05-05 09:31 29.28841 113.18784 35939 ft 477 kts 222°
2026-05-05 09:32 29.23426 113.14429 35935 ft 480 kts 222°
2026-05-05 09:32 29.17982 113.10035 35949 ft 478 kts 223°
2026-05-05 09:33 29.12550 113.05650 35948 ft 477 kts 223°
2026-05-05 09:33 29.07136 113.01269 35950 ft 478 kts 223°
2026-05-05 09:34 29.05474 112.99925 35943 ft 478 kts 223°